This is the latest recevied weather packets stored in our database for station/object OE6PLD-13. If no packets are shown the sender has not sent any weather packets the latest 10 day(s).
| Time | Temp. | Humidity | Pressure | Rain* | Wind** | Luminosity | Snow |
|---|---|---|---|---|---|---|---|
| 1778157885 | 22.22° C | 54% | 1013 hPa | 0.76 mm | - | 218 W/m² | - |
| 1778157702 | 21.67° C | 55% | 1012.9 hPa | 0.76 mm | - | 573 W/m² | - |
| 1778157518 | 21.67° C | 53% | 1013 hPa | 0.76 mm | - | 344 W/m² | - |
| 1778157335 | 22.22° C | 54% | 1012.7 hPa | 0.76 mm | - | 137 W/m² | - |
| 1778157152 | 21.67° C | 54% | 1013.1 hPa | 0.76 mm | - | 569 W/m² | - |
| 1778156968 | 21.67° C | 53% | 1012.9 hPa | 0.76 mm | - | 420 W/m² | - |
| 1778156785 | 22.22° C | 52% | 1013.1 hPa | 0.76 mm | - | 183 W/m² | - |
| 1778156601 | 22.22° C | 52% | 1013.2 hPa | 0.76 mm | - | 140 W/m² | - |
| 1778156418 | 22.78° C | 52% | 1013.1 hPa | 0.76 mm | - | 573 W/m² | - |
| 1778156234 | 23.33° C | 51% | 1013.1 hPa | 0.76 mm | - | 163 W/m² | - |
| 1778156051 | 22.78° C | 52% | 1013.3 hPa | 0.76 mm | - | 593 W/m² | - |
| 1778155868 | 22.22° C | 54% | 1013.2 hPa | 0.76 mm | - | 558 W/m² | - |
| 1778155684 | 22.22° C | 54% | 1013.3 hPa | 0.76 mm | - | 630 W/m² | - |
| 1778155501 | 21.67° C | 55% | 1013.2 hPa | 0.76 mm | - | 538 W/m² | - |
| 1778155318 | 21.11° C | 57% | 1013.4 hPa | 0.76 mm | - | 514 W/m² | - |
| 1778155134 | 20.56° C | 57% | 1016.1 hPa | 0.76 mm | - | 240 W/m² | - |
| 1778154951 | 21.11° C | 58% | 1016.2 hPa | 0.76 mm | - | 449 W/m² | - |
| 1778154768 | 21.11° C | 58% | 1016.2 hPa | 0.76 mm | - | 306 W/m² | - |
| 1778154584 | 20.56° C | 59% | 1016.1 hPa | 0.76 mm | - | 211 W/m² | - |
| 1778154401 | 21.11° C | 57% | 1016.3 hPa | 0.76 mm | - | 359 W/m² | - |
| 1778154217 | 21.67° C | 57% | 1016.4 hPa | 0.76 mm | - | 303 W/m² | - |
| 1778154034 | 21.67° C | 56% | 1016.3 hPa | 0.76 mm | - | 287 W/m² | - |
| 1778153851 | 21.67° C | 56% | 1016.2 hPa | 0.76 mm | - | 309 W/m² | - |
| 1778153667 | 21.11° C | 55% | 1016.2 hPa | 0.76 mm | - | 477 W/m² | - |
| 1778153484 | 21.67° C | 54% | 1016.1 hPa | 0.76 mm | - | 559 W/m² | - |
* Rain latest hour (hover to see other rain measurements)
** Current wind speed in m/s (hover to see current wind gust speed)